Back to catalog

FENGYUN 1C DEB

AliveSSO
NORAD 31523·DEBRIS·🇨🇳 China

Launched May 10, 1999 from Taiyuan Satellite Launch Center

Loading…

Next Passes (next 24 hours)

TLE

FreshSource: Space-Track

Epoch: Sep 14, 2026, 08:40 UTC

1 31523U 99025BXN 26257.36128650 -.00000014  00000-0  15165-4 0  9990
2 31523  98.7183 303.6537 0039121  46.2120  14.2859 14.13883034999023

Track FENGYUN 1C DEB in real time with AllMySat

Download on the App Store